"Pseudo-MPEC" for JAFy1Il

Created 2023 Mar 21 18:22:09 UT using Find_Orb

Click here for an explanation of pseudo-MPECs

 
 Astrometry: 
     JAFy1Il*!C2023 03 15*bAx/5#vgAVXAs2n1[gAstrometryk](ykNVA1kKsg#]=Sm_/%iRW84
     JAFy1Il !C2023 03 15l]cN$/1-b#5?DFdredacted;Is+L0.,NaTgJ3G9f:wclick)h!lSW84
     JAFy1Il !C2023 03 15bUVwNTw8#KD)[,jcmD*qWR0wl-'4cMgK(x#V,IdKGGhereaS7$5/W84
     JAFy1Il !C2023 03 15qGa'D-fori%uRSW[nZl!5oe`2!oexplanation$ZI9i@`*!_kDdfW84

Station data:
(W84) Cerro Tololo-DECam  (S30.169594 W70.806420)  Chile.  Observer F. Valdes.
    Measurer S. Deen. 4.0-m reflector + CCD.

Orbital elements:  JAFy1Il
   Perihelion 2023 Mar 21.77849 +/- 40.3 TT = 18:41:01 (JD 2460025.27849)
Epoch 2023 Mar 15.0 TT = JDT 2460018.5   Earth MOID: 0.3203   Ju: 0.2401
M 358.76081817 +/- 31               (J2000 ecliptic)             AutoNEOCP
n   0.18281086 +/- 0.28             Peri.  350.01312 +/- 70
a   3.07469032 +/- 3.14             Node   196.04729 +/- 38
e   0.5720976 +/- 0.259             Incl.   24.11094 +/- 14
P   5.39                   H 22.55  G  0.15   U 11.9  SR
q 1.31566731 +/- 0.352    Q 4.83371333 +/- 43.3
From 4 observations 2023 Mar. 15 (21.4 min); mean residual 0".09
Residuals in arcseconds: 
230315 W84  .03+  .11+    230315 W84  .11+  .05-    
230315 W84  .11-  .14-    230315 W84  .04-  .08+    

Ephemerides (geocentric):
Date (UTC) HH   RA             Dec           delta  r     elong  mag " sig PA
---- --------  ------------   ------------  ------ ------ -----  --- --------
2023 03 21 18  13 11 24.086   -24 10 28.83  .35328 1.3157 150.7 22.0  62d 159
2023 03 21 19  13 11 29.875   -24 08 00.39  .35314 1.3157 150.8 22.0  62d 159
2023 03 21 20  13 11 35.661   -24 05 31.75  .35299 1.3157 150.8 22.0  62d 159
2023 03 21 21  13 11 41.445   -24 03 02.91  .35285 1.3157 150.9 22.0  62d 159
2023 03 21 22  13 11 47.226   -24 00 33.87  .35270 1.3157 150.9 22.0  62d 159
2023 03 21 23  13 11 53.004   -23 58 04.62  .35256 1.3157 151.0 22.0  62d 159
2023 03 22 00  13 11 58.779   -23 55 35.17  .35242 1.3157 151.0 22.0  62d 159
2023 03 22 01  13 12 04.551   -23 53 05.52  .35228 1.3157 151.1 22.0  62d 159
2023 03 22 02  13 12 10.321   -23 50 35.68  .35213 1.3157 151.2 22.0  62d 159
2023 03 22 03  13 12 16.088   -23 48 05.63  .35199 1.3157 151.2 22.0  62d 159
2023 03 22 04  13 12 21.852   -23 45 35.38  .35185 1.3157 151.3 22.0  62d 159
2023 03 22 05  13 12 27.614   -23 43 04.93  .35171 1.3157 151.3 22.0  62d 159
2023 03 22 06  13 12 33.372   -23 40 34.28  .35157 1.3157 151.4 22.0  62d 159
2023 03 22 07  13 12 39.128   -23 38 03.43  .35143 1.3157 151.4 22.0  62d 159
2023 03 22 08  13 12 44.881   -23 35 32.38  .35129 1.3157 151.5 22.0  62d 159
2023 03 22 09  13 12 50.631   -23 33 01.13  .35115 1.3157 151.5 22.0  62d 159
2023 03 22 10  13 12 56.378   -23 30 29.69  .35101 1.3157 151.6 22.0  62d 159
2023 03 22 11  13 13 02.122   -23 27 58.05  .35087 1.3157 151.6 22.0  62d 159
2023 03 22 12  13 13 07.864   -23 25 26.21  .35073 1.3157 151.7 22.0  62d 159
2023 03 22 13  13 13 13.603   -23 22 54.17  .35060 1.3157 151.8 21.9  63d 159
2023 03 22 14  13 13 19.339   -23 20 21.94  .35046 1.3157 151.8 21.9  63d 159
2023 03 22 15  13 13 25.072   -23 17 49.51  .35032 1.3157 151.9 21.9  63d 159
2023 03 22 16  13 13 30.802   -23 15 16.88  .35018 1.3157 151.9 21.9  63d 159
2023 03 22 17  13 13 36.529   -23 12 44.06  .35005 1.3157 152.0 21.9  63d 159
2023 03 22 18  13 13 42.253   -23 10 11.04  .34991 1.3157 152.0 21.9  63d 159
2023 03 22 19  13 13 47.975   -23 07 37.83  .34978 1.3157 152.1 21.9  63d 159
2023 03 22 20  13 13 53.693   -23 05 04.42  .34964 1.3157 152.1 21.9  63d 159
2023 03 22 21  13 13 59.409   -23 02 30.82  .34951 1.3157 152.2 21.9  63d 159
2023 03 22 22  13 14 05.122   -22 59 57.02  .34938 1.3157 152.2 21.9  63d 159
2023 03 22 23  13 14 10.832   -22 57 23.03  .34924 1.3157 152.3 21.9  64d 159
2023 03 23 00  13 14 16.539   -22 54 48.85  .34911 1.3157 152.4 21.9  64d 159
2023 03 23 01  13 14 22.243   -22 52 14.47  .34898 1.3157 152.4 21.9  64d 159
2023 03 23 02  13 14 27.944   -22 49 39.90  .34884 1.3158 152.5 21.9  64d 159
2023 03 23 03  13 14 33.642   -22 47 05.14  .34871 1.3158 152.5 21.9  64d 159
2023 03 23 04  13 14 39.338   -22 44 30.19  .34858 1.3158 152.6 21.9  64d 159
2023 03 23 05  13 14 45.030   -22 41 55.04  .34845 1.3158 152.6 21.9  64d 159
2023 03 23 06  13 14 50.719   -22 39 19.71  .34832 1.3158 152.7 21.9  64d 159
2023 03 23 07  13 14 56.406   -22 36 44.18  .34819 1.3158 152.7 21.9  64d 159
2023 03 23 08  13 15 02.089   -22 34 08.46  .34806 1.3158 152.8 21.9  64d 159
2023 03 23 09  13 15 07.770   -22 31 32.56  .34793 1.3158 152.9 21.9  65d 159
2023 03 23 10  13 15 13.447   -22 28 56.46  .34780 1.3158 152.9 21.9  65d 159
2023 03 23 11  13 15 19.122   -22 26 20.17  .34767 1.3158 153.0 21.9  65d 159
2023 03 23 12  13 15 24.794   -22 23 43.70  .34755 1.3158 153.0 21.9  65d 159
2023 03 23 13  13 15 30.462   -22 21 07.03  .34742 1.3158 153.1 21.9  65d 159
2023 03 23 14  13 15 36.128   -22 18 30.18  .34729 1.3158 153.1 21.9  65d 159
2023 03 23 15  13 15 41.791   -22 15 53.14  .34717 1.3158 153.2 21.9  65d 159
2023 03 23 16  13 15 47.450   -22 13 15.92  .34704 1.3158 153.2 21.9  65d 159
2023 03 23 17  13 15 53.107   -22 10 38.50  .34691 1.3158 153.3 21.9  65d 159